Location: Andiroba
(19.8650°S, 43.9258°W)
Time: 00:12:50
(UTC+00:00)

YAOGAN 11 - Pass Details

Date: 15 June 2024
Orbit: 607 x 657 km, 98.4° (Epoch: 24 July)

Event Time Altitude Azimuth Distance (km) Brightness Sun altitude
Rises 08:51:49 0° 178° (S) 2,969 7.4 -8.7°
Reaches altitude 10° 08:54:07 10° 184° (S) 2,045 6.5 -8.2°
Maximum altitude 08:58:20 43° 255° (WSW) 889 4.4 -7.3°
Drops below altitude 10° 09:02:27 10° 327° (NNW) 1,993 6.6 -6.4°
Sets 09:04:41 0° 333° (NNW) 2,884 7.5 -5.9°
